Regional Weather Roundup
Issued by NWS Cleveland, OH

Home | Current Version | Previous Version | Graphics & Text | Print | Product List | Glossary On
Versions: 1 2 3 4 5 6 7 8 9 10 11 12 13 14 15 16 17 18 19 20 21 22 23 24 25 26 27 28 29 30 31 32 33 34 35 36 37 38 39 40 41 42 43 44 45 46 47 48 49 50
353
ASUS41 KCLE 222010
RWRCLE
OHIO REGIONAL WEATHER ROUNDUP
NATIONAL WEATHER SERVICE WILMINGTON, OH
400 PM EDT SUN OCT 22 2017

NOTE: "FAIR" INDICATES FEW OR NO CLOUDS BELOW 12,000 FEET WITH NO
SIGNIFICANT WEATHER AND/OR OBSTRUCTIONS TO VISIBILITY.

OHZ001>008-015>018-024>027-034-035-043-044-222100-
   NORTHWEST OHIO

CITY           SKY/WX    TMP DP  RH WIND       PRES   REMARKS
DEFIANCE       FAIR      78  54  43 S15G23    30.03F
FINDLAY        LGT RAIN  79  52  38 S18G25    30.07F
TOLEDO EXPRESS FAIR      79  58  48 S13G23    30.05F
TOLEDO EXEC    FAIR      79  54  41 S21G29    30.06F
LIMA           FAIR      76  55  48 SW15G24   30.08F
$$

OHZ009>014-019>023-028>033-038-089-222100-
   NORTHEAST OHIO

CITY           SKY/WX    TMP DP  RH WIND       PRES   REMARKS
CLE-HOPKINS    PTSUNNY   78  48  34 S15G25    30.13F
CLE-LAKEFRONT  FAIR      79  45  29 S14       30.11F
CUY CO. ARPT   MOSUNNY   79  52  38 S7        30.16F
LORAIN-ELYRIA  FAIR      76  50  40 S14G24    30.11F
ASHTABULA      FAIR      72  51  47 S8        30.18F
AKRON-CANTON   FAIR      77  50  38 S13       30.16F
WOOSTER        FAIR      78  47  33 S9G17     30.15F
MANSFIELD      FAIR      77  52  41 SE16G24   30.13F
YOUNGSTOWN     PTSUNNY   75  51  43 S9        30.19F
$$

OHZ042-051>053-060>062-070>072-077>081-222100-
  SOUTHWEST OHIO

CITY           SKY/WX    TMP DP  RH WIND       PRES   REMARKS
CINC-COVINGTON PTSUNNY   75  55  49 S14       30.12R
CINC-LUNKEN    FAIR      73  53  49 S13       30.12S
HAMILTON       FAIR      77  55  46 S8G17     30.11S
DAYTON         FAIR      75  56  51 S13G24    30.11F
WRIGHT-PAT AFB FAIR      77  50  39 S16G22    30.10F
DAYTON GENERAL FAIR      75  52  44 S14       30.11S
WILMINGTON     FAIR      73  48  41 S14G23    30.13S
$$

OHZ036-037-039>041-045>050-054>059-063>069-073>076-082>088-222100-
  CENTRAL AND SOUTHEAST OHIO

CITY           SKY/WX    TMP DP  RH WIND       PRES   REMARKS
COLUMBUS       PTSUNNY   76  51  41 S13       30.13F
OSU AIRPORT    FAIR      74  53  48 S10       30.13S
BOLTON FIELD   SUNNY     73  54  49 S13G18    30.14F
RICKENBACK AFB FAIR      74  53  46 SE12      30.13S
NEWARK         FAIR      77  49  37 S9        30.14F
MARION         FAIR      76  50  40 S16G25    30.11F
LANCASTER      FAIR      75  53  46 S8        30.15F
ZANESVILLE     FAIR      77  46  33 SE10      30.16F
NEW PHILLY     FAIR      78  48  34 SE7       30.17F
$$




USA.gov is the U.S. government's official web portal to all federal, state and local government web resources and services.